Hanamaulu, HI

2:14 AM HST on September 30, 2016 (GMT -1000)
Lihue

Weather History for PHLI - November, 2012

Change the Weather History Date:

Thursday, November 1, 2012

  Actual Average Record
Temperature  
Mean Temperature 76 °F 77 °F  
Max Temperature 83 °F 82 °F 89 °F (1995)
Min Temperature 69 °F 72 °F 64 °F (1980)
Degree Days  
Heating Degree Days 0 0  
Month to date heating degree days 0 0  
Since 1 July heating degree days 0 0  
Cooling Degree Days 11 12  
Month to date cooling degree days 11 12  
Year to date cooling degree days 3498 3379  
Growing Degree Days 26 (Base 50)    
Moisture  
Dew Point 65 °F    
Average Humidity 70    
Maximum Humidity 84    
Minimum Humidity 55    
Precipitation  
Precipitation T in 0.14 in 1.53 in (1978)
Month to date precipitation T 0.14  
Year to date precipitation 36.23 27.53  
Snow  
Snow 0.00 in - - ()
Month to date snowfall 0.0  
Since 1 July snowfall 0.0  
Since 1 September snowfall 0.0  
Snow Depth 0.00 in    
Sea Level Pressure  
Sea Level Pressure 30.00 in    
Wind  
Wind Speed 7 mph (NNE)    
Max Wind Speed 12 mph    
Max Gust Speed 15 mph    
Visibility 10 miles    
Events      
T = Trace of Precipitation, MM = Missing Value Source: NWS Daily Summary

Daily Weather History Graph

Daily Weather History Graph

Search for Another Location

Airport or City:

Trip Planner

Search our weather history database for the weather conditions in past years. The results will help you decide how hot, cold, wet, or windy it might be!

Date:

Astronomy

Nov. 01, 2012 Rise Set
Actual Time 6:41 AM HST 6:00 PM HST
Civil Twilight 6:18 AM HST 6:23 PM HST
Nautical Twilight 5:51 AM HST 6:49 PM HST
Astronomical Twilight 5:25 AM HST 7:15 PM HST
Moon 8:21 PM HST (11/1) 9:09 AM HST (11/1)
Length of Visible Light 12h 04m
Length of Day
11h 18m
Waning Gibbous, 92% of the Moon is Illuminated
Nov 1
Waning Gibbous
Nov 6
Last Quarter
Nov 13
New
Nov 20
First Quarter
Nov 28
Full

Hourly Weather History & Observations

Time (HST) Temp. Heat Index Dew Point Humidity Pressure Visibility Wind Dir Wind Speed Gust Speed Precip Events Conditions
12:53 AM 72.0 °F - 64.9 °F 78% 30.03 in 10.0 mi WNW 5.8 mph - N/A   Mostly Cloudy
1:53 AM 71.1 °F - 66.0 °F 84% 30.01 in 10.0 mi West 5.8 mph - 0.00 in   Mostly Cloudy
2:53 AM 72.0 °F - 66.0 °F 81% 30.00 in 10.0 mi WNW 6.9 mph - N/A   Overcast
3:53 AM 70.0 °F - 64.9 °F 84% 29.99 in 10.0 mi West 6.9 mph - N/A   Mostly Cloudy
4:01 AM 69.8 °F - 64.4 °F 83% 30.00 in 10.0 mi West 8.1 mph - N/A   Mostly Cloudy
4:53 AM 70.0 °F - 64.9 °F 84% 29.99 in 10.0 mi West 6.9 mph - N/A   Partly Cloudy
5:53 AM 70.0 °F - 64.9 °F 84% 30.00 in 10.0 mi West 6.9 mph - N/A   Scattered Clouds
6:53 AM 70.0 °F - 64.0 °F 81% 30.02 in 10.0 mi West 6.9 mph - N/A   Scattered Clouds
7:53 AM 72.0 °F - 64.9 °F 78% 30.03 in 10.0 mi West 6.9 mph - N/A   Clear
7:54 AM 73.4 °F - 64.4 °F 73% 30.04 in 10.0 mi West 6.9 mph - N/A   Partly Cloudy
8:53 AM 78.1 °F - 64.9 °F 64% 30.04 in 10.0 mi Calm Calm - N/A   Partly Cloudy
9:11 AM 80.6 °F 82.3 °F 64.4 °F 58% 30.05 in 10.0 mi Variable 4.6 mph - N/A   Partly Cloudy
9:53 AM 80.1 °F 81.9 °F 64.9 °F 60% 30.05 in 10.0 mi NE 6.9 mph - N/A   Clear
10:53 AM 81.0 °F 82.7 °F 64.9 °F 58% 30.04 in 10.0 mi ENE 8.1 mph - N/A   Clear
11:53 AM 82.0 °F 83.8 °F 64.9 °F 56% 30.02 in 10.0 mi ENE 10.4 mph - N/A   Clear
12:53 PM 81.0 °F 82.7 °F 64.9 °F 58% 29.99 in 10.0 mi NE 8.1 mph - N/A   Clear
1:53 PM 81.0 °F 83.0 °F 66.0 °F 60% 29.97 in 10.0 mi ENE 10.4 mph - N/A   Clear
2:53 PM 82.0 °F 84.1 °F 66.0 °F 58% 29.95 in 10.0 mi ENE 10.4 mph - N/A   Clear
3:53 PM 79.0 °F - 66.0 °F 64% 29.94 in 10.0 mi NE 10.4 mph - N/A   Scattered Clouds
4:53 PM 79.0 °F - 64.0 °F 60% 29.95 in 10.0 mi ENE 6.9 mph - N/A   Mostly Cloudy
5:53 PM 77.0 °F - 66.0 °F 69% 29.96 in 10.0 mi ENE 9.2 mph - N/A   Mostly Cloudy
6:10 PM 77.0 °F - 64.4 °F 65% 29.97 in 10.0 mi East 8.1 mph - N/A   Scattered Clouds
6:18 PM 77.0 °F - 66.2 °F 69% 29.97 in 10.0 mi ENE 8.1 mph - N/A   Mostly Cloudy
6:53 PM 75.9 °F - 66.0 °F 71% 29.97 in 10.0 mi ENE 6.9 mph - N/A   Partly Cloudy
7:53 PM 75.9 °F - 64.9 °F 69% 30.00 in 10.0 mi East 8.1 mph - N/A   Partly Cloudy
8:53 PM 75.9 °F - 66.0 °F 71% 30.00 in 10.0 mi East 8.1 mph - N/A   Partly Cloudy
9:53 PM 75.9 °F - 66.0 °F 71% 30.00 in 10.0 mi East 8.1 mph - N/A   Scattered Clouds
10:53 PM 77.0 °F - 66.0 °F 69% 30.00 in 10.0 mi East 6.9 mph - N/A   Mostly Cloudy
11:53 PM 72.0 °F - 64.9 °F 78% 29.99 in 10.0 mi WSW 4.6 mph - N/A   Mostly Cloudy